Theta_e
304 306 304 303 303 305 305 307 316 322 325 324 322 322 322 323 325 329 330 331 331 330 329 328 327 324 322 322 322 320 318 319 319 315 316 317 318 317 318 320 320 320 320
302 303 301 300 299 299 302 309 315 322 324 325 325 325 325 325 325 326 326 329 330 330 329 329 328 327 322 321 321 319 318 317 319 314 313 311 316 316 317 319 319 318 319
299 299 297 296 297 298 298 301 302 304 309 321 325 324 325 325 325 324 325 325 326 327 328 328 328 328 325 322 323 321 318 317 319 316 315 307 307 310 314 316 317 317 318
295 295 295 294 295 296 298 298 299 300 302 303 314 321 321 320 322 324 326 327 326 325 326 326 327 327 326 325 324 324 321 319 317 315 316 318 318 312 312 311 313 317 316
293 292 292 293 293 294 295 296 295 295 297 299 300 302 302 305 307 307 309 310 314 321 327 327 328 326 326 325 325 324 322 321 319 318 317 314 315 316 312 309 314 312 314
291 291 292 292 291 292 293 293 292 292 293 295 296 297 298 299 301 302 303 306 309 313 315 314 318 322 325 324 325 325 324 322 320 320 319 317 312 311 311 310 312 313 317
289 289 288 288 289 288 289 290 289 288 290 292 293 294 296 297 297 297 298 300 302 306 305 307 307 312 316 320 324 324 323 323 322 320 319 319 319 318 316 313 313 313 317
287 287 287 287 287 287 287 287 286 286 287 289 290 291 292 294 293 293 293 294 295 297 299 299 302 304 306 312 318 322 323 323 322 321 321 320 320 319 318 316 314 311 313
285 285 285 285 286 286 285 284 284 284 284 286 288 289 289 290 291 290 290 290 292 292 293 295 296 299 301 306 310 315 318 322 322 321 321 320 321 321 320 319 317 313 309
284 284 283 283 283 284 284 283 282 281 282 284 285 287 287 286 287 289 286 286 288 289 290 291 293 295 297 300 303 306 311 315 319 321 321 320 321 321 321 320 319 317 314
283 283 283 282 281 282 282 280 280 280 280 282 283 284 284 283 283 283 284 284 285 286 287 289 291 292 294 296 297 299 303 305 309 313 316 318 320 320 320 320 320 318 317
282 282 281 280 279 279 280 278 278 278 279 280 281 281 281 280 280 280 281 282 282 283 284 286 288 290 291 294 294 294 297 299 298 301 304 307 311 314 320 319 318 318 318
281 280 279 278 278 278 278 277 277 277 278 278 279 279 278 278 278 278 279 280 280 281 282 283 284 286 289 291 293 294 294 294 294 296 298 299 304 305 309 313 318 318 318
281 279 278 277 277 277 276 276 276 276 277 277 277 276 276 276 276 277 278 278 279 279 279 280 281 283 286 289 291 291 291 292 293 294 295 296 297 298 302 301 304 308 313
279 279 278 276 275 276 275 275 275 275 276 275 276 275 275 275 276 276 276 277 278 278 278 279 279 281 284 287 288 289 290 290 291 293 293 295 294 291 294 296 299 300 302
278 277 277 276 275 274 274 274 274 274 275 274 274 274 274 274 275 275 275 275 276 276 277 277 278 279 282 285 286 287 287 287 289 291 292 293 292 293 293 294 295 296 296
277 276 274 273 273 272 272 271 273 273 273 273 273 273 273 273 273 273 274 274 274 275 275 276 278 279 281 284 286 286 286 286 287 289 291 292 293 292 294 295 294 294 294
275 273 272 270 270 271 270 272 272 272 272 272 271 271 271 271 272 272 273 273 274 274 275 277 279 281 282 285 286 286 286 286 287 288 289 290 291 292 291 292 292 292 293
272 271 271 270 269 269 270 271 271 271 270 270 270 270 270 270 270 271 272 273 273 274 276 278 279 278 279 282 283 284 284 284 285 287 288 290 289 290 291 290 288 288 289
271 270 270 269 268 268 269 270 269 268 267 268 268 269 269 269 270 271 271 272 274 275 277 278 277 277 277 280 281 282 282 282 284 286 287 288 289 290 291 289 288 286 288
269 269 268 267 266 268 269 268 267 266 266 267 267 267 268 269 271 271 271 272 274 274 274 275 275 276 276 277 279 281 279 279 280 284 285 286 289 290 291 291 288 288 289
268 268 266 265 265 267 266 265 264 265 265 265 265 265 267 269 270 269 270 272 271 272 272 272 272 274 275 276 278 280 279 280 277 280 284 285 288 289 289 289 290 291 291
266 266 265 264 264 264 264 263 263 264 264 262 262 264 266 267 268 268 268 270 270 271 271 271 269 270 273 274 277 277 277 277 276 276 278 278 280 281 283 284 285 284 286
265 264 264 262 261 262 262 261 262 262 259 259 262 265 265 265 266 267 268 269 268 270 270 270 268 269 271 272 274 274 273 274 273 272 271 273 273 274 274 274 277 278 281
264 263 262 261 260 260 260 259 260 260 259 261 263 263 264 263 264 265 266 268 269 272 270 271 270 268 269 272 274 274 272 271 272 267 267 266 266 266 267 269 270 271 272
262 261 260 259 257 257 257 257 256 257 256 260 261 262 262 262 263 263 263 268 270 272 272 273 272 271 273 274 274 273 272 272 270 263 262 262 262 262 263 264 265 267 267
Wind_Speed
10 7 5 6 8 5 8 7 7 5 5 2 2 4 6 5 6 8 12 12 11 12 11 8 8 8 8 9 10 8 9 8 7 5 8 10 12 13 11 11 12 14 14
8 4 6 8 9 9 10 10 7 4 3 3 2 2 2 3 4 5 8 10 10 11 10 11 9 10 7 9 10 8 7 6 6 5 3 5 6 8 11 10 11 14 10
9 6 8 10 10 12 12 12 12 11 10 5 1 1 1 1 1 1 4 5 9 10 11 11 9 9 8 9 10 9 11 10 6 11 6 3 7 1 4 11 10 12 9
5 8 9 12 11 11 11 13 13 14 13 14 7 5 4 3 4 4 3 4 4 7 8 10 11 11 8 10 10 8 11 10 11 4 10 12 8 6 9 4 6 8 10
8 9 10 10 10 11 11 10 13 15 15 14 13 9 9 6 5 6 9 10 9 10 8 9 10 9 8 10 11 10 10 10 10 9 6 9 10 13 9 12 6 6 8
7 9 9 10 11 10 11 12 13 15 14 14 15 14 12 10 9 10 8 8 7 7 10 12 10 10 10 10 10 11 13 12 11 10 11 10 6 5 9 11 14 13 9
7 9 10 10 11 13 13 11 14 15 15 15 15 15 13 12 11 11 9 11 9 9 11 13 11 9 11 12 11 11 13 12 11 12 11 10 12 11 10 11 12 11 9
7 8 9 9 10 11 12 12 13 14 14 14 14 13 14 9 8 10 9 8 8 10 13 13 13 13 13 12 11 10 10 10 11 15 13 11 11 11 11 13 11 11 10
6 7 7 8 8 10 12 12 12 13 14 14 12 13 12 13 10 11 10 8 10 10 13 14 14 14 14 14 13 9 11 12 10 12 12 13 12 11 11 12 11 12 12
5 6 7 8 8 9 10 11 11 13 12 13 12 11 12 13 12 10 13 13 12 14 14 14 14 15 14 15 14 11 12 13 10 10 12 11 10 11 11 11 11 12 14
6 5 6 7 8 8 10 10 12 13 13 12 11 10 10 11 11 11 12 12 13 14 15 15 15 15 15 14 14 15 14 14 13 12 13 14 15 11 11 10 11 12 12
7 5 5 5 6 7 9 10 11 11 11 10 10 11 11 11 11 12 12 13 13 13 14 15 15 15 15 14 14 16 16 15 17 17 15 15 10 15 14 12 14 14 13
7 6 5 5 6 6 7 9 10 11 11 11 11 11 12 12 12 13 13 13 13 13 13 14 15 16 15 15 14 14 15 17 17 16 16 16 15 14 12 15 12 12 10
8 6 4 4 5 6 7 7 9 10 11 12 11 12 13 13 13 13 14 14 14 14 15 14 15 15 15 15 14 16 18 18 17 17 17 17 16 17 14 14 15 13 12
7 6 6 5 6 6 7 7 8 10 10 11 12 13 13 13 13 14 14 15 14 14 14 15 15 15 14 11 17 17 18 19 20 19 18 17 15 17 16 12 13 14 12
10 7 5 5 5 5 6 8 9 9 11 11 12 12 13 13 14 14 14 14 14 14 13 14 14 14 11 24 26 24 19 20 19 17 18 19 17 17 17 19 23 18 13
10 7 6 5 5 6 8 7 9 10 10 9 11 12 14 14 14 14 14 14 14 14 14 14 14 14 13 23 27 28 18 20 19 19 17 16 12 14 16 19 21 22 18
10 8 6 5 6 7 7 6 8 9 9 10 11 13 13 14 14 14 15 14 12 13 12 13 13 13 12 26 29 31 21 19 20 19 19 17 18 15 15 16 16 15 14
11 8 6 6 5 5 6 5 7 8 9 10 11 12 12 12 13 14 14 13 13 12 12 13 15 17 16 29 31 29 20 19 21 20 19 16 18 21 22 16 16 16 15
10 9 8 6 4 6 5 4 8 8 9 10 11 11 11 11 13 14 14 13 12 12 9 11 12 14 14 24 30 28 15 19 17 20 21 21 20 25 24 15 14 17 14
12 10 8 7 5 4 3 7 8 9 9 10 10 10 10 11 11 12 11 10 10 9 9 10 11 12 15 17 30 32 17 16 16 16 14 13 24 26 25 24 14 16 15
12 10 8 6 4 5 6 7 8 8 8 8 8 9 9 9 9 9 9 9 9 9 11 12 11 10 13 22 27 31 31 30 18 17 15 14 25 26 27 21 21 23 19
9 8 7 7 7 7 7 6 7 8 8 7 8 8 8 8 8 8 8 8 9 8 9 10 10 11 12 13 30 29 33 30 18 15 22 28 28 29 18 24 23 13 5
8 7 7 7 5 5 7 6 7 8 6 6 6 7 8 9 8 7 8 7 8 9 9 9 10 11 11 13 14 13 15 22 17 20 15 21 24 25 22 17 17 13 11
8 7 6 6 5 5 6 6 7 7 6 5 6 7 7 7 8 8 7 8 8 11 9 8 9 11 11 14 24 21 14 15 17 14 12 15 16 15 15 15 15 14 14
7 6 6 6 5 5 5 5 5 5 4 5 6 6 6 6 6 7 9 13 16 17 19 21 15 9 20 26 28 28 26 29 27 12 13 13 14 15 15 14 14 14 16
Wind_Direction
270 283 26 354 350 0 326 301 283 259 203 177 178 214 226 217 221 220 224 222 223 219 223 234 237 218 218 231 226 228 236 243 243 264 259 254 246 243 240 240 240 241 233
298 12 12 29 26 8 356 359 340 302 226 201 198 191 176 204 223 227 230 233 230 228 222 229 232 226 214 226 232 193 236 243 207 223 252 277 258 236 234 235 239 242 232
305 357 50 34 24 23 12 24 21 31 26 340 260 17 12 7 334 269 256 234 234 230 224 234 236 236 220 232 226 206 209 239 224 209 220 250 243 289 200 228 227 230 227
53 59 45 37 23 17 22 27 28 29 26 23 38 46 36 10 8 348 334 304 237 241 238 238 240 242 241 242 240 222 225 222 242 206 223 237 258 270 289 223 243 235 225
69 68 57 45 31 18 31 28 34 34 27 35 39 43 46 28 16 13 14 9 358 353 315 271 262 255 251 249 250 238 225 224 235 234 219 226 240 244 254 281 252 231 231
72 55 56 52 40 30 31 31 35 34 27 34 36 41 38 25 25 11 5 357 355 356 3 353 345 325 290 269 259 251 242 233 231 235 233 229 219 217 229 243 260 259 251
72 63 48 45 41 36 32 34 31 32 24 30 33 30 30 30 28 17 5 360 351 354 352 347 339 331 324 317 283 262 253 246 242 239 241 238 238 240 233 241 255 259 256
66 59 54 48 44 41 37 35 35 33 24 25 26 25 24 24 24 18 7 1 353 343 339 336 333 331 327 319 314 302 271 262 258 248 239 242 241 240 237 240 248 258 253
81 75 58 47 45 45 40 33 33 32 24 22 18 21 19 15 9 8 5 355 347 342 341 338 335 333 331 328 325 314 304 283 259 253 258 257 246 240 239 242 238 246 261
106 79 62 50 38 39 47 33 32 38 23 16 16 17 12 8 360 0 359 355 346 343 339 339 338 334 335 335 333 324 318 315 305 282 267 256 256 258 254 240 238 239 250
122 97 71 49 46 35 46 36 24 25 22 13 9 12 10 8 360 360 354 350 344 343 339 337 334 333 333 335 333 327 322 322 315 327 321 297 275 263 258 254 251 249 243
122 106 94 77 55 38 42 36 30 19 12 5 10 9 4 6 6 354 352 346 343 341 339 336 331 330 329 329 332 329 324 328 322 318 316 306 316 315 279 258 256 253 244
137 120 92 69 59 39 47 41 31 14 3 1 12 8 1 356 0 354 351 346 342 341 341 340 335 331 325 326 330 323 324 320 314 312 311 308 309 304 302 314 284 258 248
149 136 113 68 42 40 35 39 38 21 4 1 5 5 356 351 356 349 348 342 343 342 343 340 334 332 327 326 325 330 320 314 310 307 304 303 300 301 310 313 302 305 306
153 137 107 74 37 21 14 30 35 27 10 353 6 356 350 352 349 351 345 340 344 340 338 336 337 334 329 331 331 316 312 311 308 303 301 298 296 289 286 291 296 300 292
150 127 98 81 45 356 3 19 29 20 23 358 360 352 351 354 351 345 344 342 340 339 338 341 339 335 332 326 325 321 314 310 303 300 300 299 293 290 284 285 285 276 280
139 127 107 75 47 13 12 17 23 18 23 1 358 354 354 351 346 344 342 344 340 340 342 342 339 331 323 327 325 318 309 304 300 297 296 294 289 286 288 284 278 279 268
136 117 96 76 45 16 357 7 30 29 17 10 0 358 354 348 345 346 344 341 337 338 335 336 332 327 326 331 333 330 318 308 300 295 292 287 289 286 287 286 287 282 271
118 111 103 86 70 35 359 360 40 35 21 11 358 355 350 344 342 343 339 338 336 330 333 338 344 343 338 341 340 337 333 318 310 303 297 288 286 287 283 284 284 283 277
122 122 115 92 74 35 353 32 44 33 19 1 349 344 345 347 344 340 338 330 324 315 329 342 344 334 336 339 340 340 332 324 317 308 303 292 279 276 278 277 282 279 280
124 115 107 91 55 31 20 51 41 26 357 346 339 338 342 344 343 338 331 327 342 334 347 349 346 343 342 338 345 342 337 328 321 317 307 301 293 280 280 278 270 269 278
116 113 106 107 75 44 42 46 37 356 343 333 327 333 336 347 348 338 333 338 346 357 358 360 355 350 346 346 347 347 348 340 330 323 318 316 313 298 292 288 279 277 275
117 112 119 99 62 40 39 45 9 355 346 337 334 331 341 345 341 342 346 354 356 7 359 4 356 350 350 349 351 350 353 349 347 338 345 354 359 358 357 354 354 347 314
114 116 103 87 73 44 46 30 3 352 338 328 331 344 348 346 353 356 356 354 352 4 0 360 360 352 350 351 352 351 351 353 358 354 349 0 7 11 5 360 360 356 354
111 106 110 99 70 41 36 17 3 352 346 334 349 358 355 354 351 358 354 358 352 1 1 355 2 353 356 358 358 359 0 3 7 359 2 7 3 4 2 359 359 1 360
121 113 94 90 53 36 22 360 348 353 353 6 7 359 354 355 358 351 342 358 6 4 7 2 18 3 358 3 5 6 8 14 13 16 14 7 2 1 358 360 356 1 2